Regional Weather Roundup
Issued by NWS

Home | Current Version | Previous Version | Graphics & Text | Print | Product List | Glossary On
Versions: 1 2 3 4 5 6 7 8 9 10 11 12 13 14 15 16 17 18 19 20 21 22 23 24 25 26 27 28 29 30 31 32 33 34 35 36 37 38 39 40 41 42 43 44 45 46 47 48 49 50
000
ASUS43 KMKX 200110
RWRWI

WISCONSIN REGIONAL WEATHER ROUNDUP
NATIONAL WEATHER SERVICE MILWAUKEE/SULLIVAN WI
700 PM CST MON FEB 19 2018

NOTE: "FAIR" INDICATES FEW OR NO CLOUDS BELOW 12,000 FEET WITH NO
SIGNIFICANT WEATHER AND/OR OBSTRUCTIONS TO VISIBILITY.

WIZ001-002-006>008-014>016-023>028-200200-
NORTHWEST WISCONSIN

CITY           SKY/WX    TMP DP  RH WIND       PRES   REMARKS
SUPERIOR ARPT  LGT SNOW  20  16  86 E16G29    30.07R WCI   6
ASHLAND        LGT SNOW  19  15  84 NE25G31   30.04R FOG     WCI   1
HAYWARD        LGT SNOW  18  13  80 NE14G24   29.95R WCI   4
SIREN          LGT SNOW  18  14  86 NE13G22   29.97R WCI   4
CUMBERLAND     MIX PCPN  19  16  86 NE12      29.91R WCI   7
RICE LAKE      MIX PCPN  20  18  93 N10       29.93R WCI   9
CHETEK         CLOUDY    19  18  93 NE7       29.92R FOG     WCI  10
LADYSMITH      CLOUDY    21  19  90 NE10G17   29.91R FOG     WCI  10
EAU CLAIRE     FOG       23  22  96 NE12      29.86R VSB 1   WCI  12
MENOMONIE      CLOUDY    23  21  92 N10G17    29.88R FOG     WCI  12
NEW RICHMOND   CLOUDY    20  17  86 NE15      29.91R FOG     WCI   7
OSCEOLA        LGT SNOW  20  18  91 NE13      29.96S WCI   8
$$

WIZ003>005-009-010-017-018-200200-
NORTH CENTRAL WISCONSIN

CITY           SKY/WX    TMP DP  RH WIND       PRES   REMARKS
MANITOWISH WTR CLOUDY    15  15  96 NE14G20   29.91S WCI   1
ARBOR VITAE    CLOUDY    19  16  88 E9        29.89F FOG     WCI   8
WOODRUFF       CLOUDY    19  16  88 E9        29.89F FOG     WCI   8
RHINELANDER    FRZ RAIN  19  17  92 NE10      29.88F FOG     WCI   7
EAGLE RIVER    CLOUDY    18  14  85 NE13G18   29.89F WCI   4
LAND O LAKES   CLOUDY    17  15  90 NE7       29.93F FOG     WCI   8
PHILLIPS       CLOUDY    17  16  95 NE9       29.88S FOG     WCI   6
TOMAHAWK       CLOUDY    19  17  92 NE8       29.88F FOG     WCI   9
MEDFORD        MIX PCPN  22  20  91 NE12G21   29.82S WCI  11
MERRILL        LGT SNOW  22  21  96 NE7       29.86F WCI  14
$$

WIZ029-030-035-036-043>047-200200-
CENTRAL WISCONSIN

CITY           SKY/WX    TMP DP  RH WIND       PRES   REMARKS
WAUSAU         CLOUDY    25  22  88 E9        29.83S FOG     WCI  15
MOSINEE        LGT SNOW  25  25 100 NE17      29.84S WCI  11
MARSHFIELD     FRZ RAIN  27  25  92 E15       29.80S FOG     WCI  15
STEVENS POINT  CLOUDY    24  24 100 E15G22    29.84S FOG     WCI  12
WAUPACA        CLOUDY    30  27  89 NE6       29.86S FOG     WCI  24
WAUTOMA        CLOUDY    28  27  96 E14       29.83S WCI  17
WISC RAPIDS    CLOUDY    27  23  85 E15G21    29.84R FOG     WCI  15
CAMP DOUGLAS   CLOUDY    32  32 100 E15       29.79S FOG     WCI  22
$$

WIZ011>013-019>022-031-037>040-048>050-200200-
NORTHEAST WISCONSIN

CITY           SKY/WX    TMP DP  RH WIND       PRES   REMARKS
ANTIGO         CLOUDY    22  20  93 NE13      29.86S FOG     WCI  10
SHAWANO        CLOUDY    28  26  89 NE12G18   29.89F WCI  18
OCONTO         CLOUDY    28  26  94 NE7       29.90F WCI  21
STURGEON BAY   CLOUDY    29  27  92 NE12      29.91F WCI  19
GREEN BAY      CLOUDY    28  25  88 NE23G31   29.89S FOG     WCI  14
MANITOWOC      LGT RAIN  33  32  96 NE12G17   29.86F FOG     WCI  24
APPLETON       CLOUDY    28  27  93 NE18G26   29.84S FOG     WCI  16
CLINTONVILLE   CLOUDY    27  25  91 NE8G16    29.88S WCI  19
OSHKOSH        CLOUDY    29  28  96 NE10      29.84F FOG     WCI  20
$$

WIZ032>034-041-042-053>061-200200-
SOUTHWEST WISCONSIN

CITY           SKY/WX    TMP DP  RH WIND       PRES   REMARKS
LA CROSSE      CLOUDY    36  34  92 NE7       29.78R FOG     WCI  30
SPARTA         CLOUDY    32  31  96 E12       29.78S FOG     WCI  23
VIROQUA        CLOUDY    34  34 100 E14       29.74R WCI  24
BOSCOBEL       CLOUDY    38  36  92 VRB6      29.75R FOG     WCI  33
PRAIRIE DU CHI CLOUDY    38  36  95 CALM      29.73R FOG
PLATTEVILLE    CLOUDY    37  37 100 E12       29.72R WCI  29
$$

WIZ056-057-062-063-064-067-068-200200-
SOUTH CENTRAL WISCONSIN

CITY           SKY/WX    TMP DP  RH WIND       PRES   REMARKS
REEDSBURG      CLOUDY    32  32 100 E9        29.78R FOG     WCI  24
BARABOO/DELLS  CLOUDY    32  31  96 E8G18     29.78S FOG     WCI  25
LONE ROCK      CLOUDY    36  36 100 E8        29.76S FOG     WCI  30
MINERAL POINT  CLOUDY    37  37 100 E10       29.73R FOG     WCI  30
MADISON        LGT RAIN  35  34  96 E12       29.79R WCI  27
MIDDLETON      CLOUDY    36  36 100 E7        29.78S WCI  31
WATERTOWN      LGT RAIN  36  36 100 E13       29.77F WCI  27
MONROE         HVY RAIN  37  36  93 NE6       29.74S VSB 1/2 WCI  33
JANESVILLE     LGT RAIN  39  39 100 E7        29.75R WCI  34
$$

WIZ051-052-058>065-066-070>072-200200-
SOUTHEAST WISCONSIN

CITY           SKY/WX    TMP DP  RH WIND       PRES   REMARKS
MILWAUKEE      LGT RAIN  36  36 100 N8        29.82S VSB 3/4 WCI  30
WAUKESHA       LGT RAIN  36  34  93 E9        29.82S FOG     WCI  29
MILWAUKEE/TIMM RAIN      36  34  93 NE8       29.83F WCI  29
RACINE         LGT RAIN  37  37 100 NE6       29.83S VSB 1/2 WCI  32
BURLINGTON     LGT SNOW  37  35  96 NE5       29.80S WCI  33
KENOSHA        LGT RAIN  37  36  96 NE6       29.81R FOG     WCI  32
FOND DU LAC    LGT RAIN  33  30  88 NE10      29.83F WCI  25
SHEBOYGAN      LGT RAIN  34  34 100 NE18      29.83F FOG     WCI  23
WEST BEND      DRIZZLE   34  34 100 NE6       29.82F WCI  29
JUNEAU         DRIZZLE   33  32  97 NE10      29.80F WCI  25
$$

LSZ147-162-200200-
LAKE SUPERIOR

STATION/POSITION TIME  TEMP    WIND        PRES    WAVE
                       AIR SEA DIR/SP/G            HT/PER
                 (UTC) (F)     (DEG/KT/KT) (MB)    (FT/S)
DEVILS ISLAND    0000   19      50/ 29/ 33 1019.9R
SAXON HARBOR     0022   19      50/ 24     1016.6F
$$

LMZ867-665-643>646-200200-
LAKE MICHIGAN

STATION/POSITION TIME  TEMP    WIND        PRES    WAVE
                       AIR SEA DIR/SP/G            HT/PER
                 (UTC) (F)     (DEG/KT/KT) (MB)    (FT/S)
NORTHPORT PIER   0043   28                 1014.6R
KEWAUNEE LAKESHO 0048   33      40/ 15/ 22 1011.5R
SHEBOYGAN LAKESH 0100   35      20/ 17/ 19 1010.8F
PORT WASHINGTON  0040   36      20/ 10/ 14 1011.2F
MILWAUKEE LAKESH 0050   35     360/  6/  8   N/A
KENOSHA   LAKESH 0000   36      10/  3/  7 1009.8
$$

TC  - TEMPERATURE IN CELSIUS
VSB - VISIBILITY IN STATUTE MILES
WCI - WIND CHILL INDEX
HX  - HEAT INDEX





USA.gov is the U.S. government's official web portal to all federal, state and local government web resources and services.